Location: Unspecified
(45.3999°N, 88.1269°W)
Time: 05:28:51
(UTC-05:00)

Cosmos 2058 - Visible Passes

Search period start: 27 June 2017 00:00
Search period end: 07 July 2017 00:00
Orbit: 565 x 584 km, 82.5° (Epoch: 26 June)

Date Brightness Start Highest point End Pass type
(mag) Time Alt. Az. Time Alt. Az. Time Alt. Az.
27 Jun 4.3 21:47:51 12° SE 21:50:39 22° E 21:53:57 10° NE visible
27 Jun 4.5 23:24:03 12° SW 23:27:24 32° WNW 23:31:15 10° N visible
28 Jun 4.0 21:50:48 13° SE 21:53:56 29° E 21:57:35 10° NNE visible
28 Jun 4.9 23:27:20 10° SW 23:30:51 25° WNW 23:34:24 10° NNW visible
29 Jun 3.6 21:53:41 12° SSE 21:57:14 38° E 22:01:09 10° NNE visible
29 Jun 5.3 23:31:11 10° WSW 23:34:19 20° WNW 23:37:28 10° NNW visible
30 Jun 3.2 21:56:32 10° SSE 22:00:32 50° E 22:04:38 10° NNE visible
30 Jun 5.6 23:35:13 10° WSW 23:37:48 16° WNW 23:40:24 10° NNW visible
01 Jul 2.9 21:59:42 10° S 22:03:52 67° E 22:08:04 10° NNE visible
01 Jul 5.8 23:39:33 10° W 23:41:19 12° WNW 23:43:04 10° NW visible
02 Jul 2.9 22:03:01 10° S 22:07:13 89° E 22:11:28 10° N visible
03 Jul 3.2 22:06:24 10° SSW 22:10:35 69° W 22:14:49 10° N visible
04 Jul 3.8 22:09:52 10° SSW 22:13:59 52° WNW 22:18:07 10° N visible
05 Jul 4.3 22:13:25 10° SW 22:17:23 39° WNW 22:21:23 10° N visible
06 Jul 4.8 22:17:05 10° SW 22:20:49 30° WNW 22:24:34 10° N visible
